Time,TemperatureF,DewpointF,PressureIn,WindDirection,WindDirectionDegrees,WindSpeedMPH,WindSpeedGustMPH,Humidity,HourlyPrecipIn,Conditions,Clouds,dailyrainin,SoftwareType,DateUTC
2013-06-21 00:01:00,81.0,63.8,30.03,North,0,0.0,0.0,56,0.00,,SCT120,0.00,VWS V14.01,2013-06-21 04:01:00,
2013-06-21 00:06:00,81.0,64.3,30.03,North,0,0.0,0.0,57,0.00,,SCT120,0.00,VWS V14.01,2013-06-21 04:06:00,
2013-06-21 00:11:00,80.8,64.6,30.03,North,0,0.0,0.0,58,0.00,,SCT120,0.00,VWS V14.01,2013-06-21 04:11:00,
2013-06-21 00:16:00,80.8,64.6,30.03,North,0,0.0,0.0,58,0.00,,SCT120,0.00,VWS V14.01,2013-06-21 04:16:00,
2013-06-21 00:21:00,80.8,65.1,30.03,North,0,0.0,0.0,59,0.00,,SCT120,0.00,VWS V14.01,2013-06-21 04:21:00,
2013-06-21 00:26:00,80.8,65.1,30.03,North,0,0.0,0.0,59,0.00,,SCT120,0.00,VWS V14.01,2013-06-21 04:26:00,
2013-06-21 00:31:00,80.6,65.0,30.03,North,0,0.0,0.0,59,0.00,,SCT120,0.00,VWS V14.01,2013-06-21 04:31:00,
2013-06-21 00:36:00,80.4,64.8,30.03,North,0,0.0,0.0,59,0.00,,SCT120,0.00,VWS V14.01,2013-06-21 04:36:00,
2013-06-21 00:41:00,80.4,65.3,30.03,North,0,0.0,0.0,60,0.00,,SCT120,0.00,VWS V14.01,2013-06-21 04:41:00,
2013-06-21 00:46:00,80.2,65.6,30.03,North,0,0.0,0.0,61,0.00,,SCT120,0.00,VWS V14.01,2013-06-21 04:46:00,
2013-06-21 00:51:00,80.2,65.6,30.03,North,0,0.0,0.0,61,0.00,,SCT120,0.00,VWS V14.01,2013-06-21 04:51:00,
2013-06-21 00:56:00,80.1,65.9,30.03,North,0,0.0,0.0,62,0.00,,SCT120,0.00,VWS V14.01,2013-06-21 04:56:00,
2013-06-21 01:01:00,79.9,65.7,30.03,North,0,0.0,0.0,62,0.00,,SCT120,0.00,VWS V14.01,2013-06-21 05:01:00,
2013-06-21 01:06:00,79.9,65.7,30.03,North,0,0.0,0.0,62,0.00,,SCT120,0.00,VWS V14.01,2013-06-21 05:06:00,
2013-06-21 01:11:00,79.7,65.5,30.03,North,0,0.0,0.0,62,0.00,,SCT120,0.00,VWS V14.01,2013-06-21 05:11:00,
2013-06-21 01:16:00,79.7,65.5,30.03,North,0,0.0,0.0,62,0.00,,SCT120,0.00,VWS V14.01,2013-06-21 05:16:00,
2013-06-21 01:21:00,79.5,65.8,30.03,North,0,0.0,0.0,63,0.00,,SCT120,0.00,VWS V14.01,2013-06-21 05:21:00,
2013-06-21 01:26:00,79.3,65.7,30.03,North,0,0.0,0.0,63,0.00,,SCT120,0.00,VWS V14.01,2013-06-21 05:26:00,
2013-06-21 01:31:00,79.3,66.1,30.03,North,0,0.0,0.0,64,0.00,,SCT120,0.00,VWS V14.01,2013-06-21 05:31:00,
2013-06-21 01:36:00,79.3,66.1,30.03,North,0,0.0,0.0,64,0.00,,SCT120,0.00,VWS V14.01,2013-06-21 05:36:00,
2013-06-21 01:41:00,79.2,66.4,30.03,North,0,0.0,0.0,65,0.00,,SCT120,0.00,VWS V14.01,2013-06-21 05:41:00,
2013-06-21 01:46:00,79.0,66.2,30.03,North,0,0.0,0.0,65,0.00,,SCT120,0.00,VWS V14.01,2013-06-21 05:46:00,
2013-06-21 01:51:00,79.0,66.7,30.03,North,0,0.0,0.0,66,0.00,,SCT120,0.00,VWS V14.01,2013-06-21 05:51:00,
2013-06-21 01:56:00,78.8,66.5,30.03,North,0,0.0,0.0,66,0.00,,SCT120,0.00,VWS V14.01,2013-06-21 05:56:00,
2013-06-21 02:01:00,79.0,66.7,30.03,North,0,0.0,0.0,66,0.00,,SCT120,0.00,VWS V14.01,2013-06-21 06:01:00,
2013-06-21 02:06:00,79.0,66.7,30.03,North,0,0.0,0.0,66,0.00,,SCT120,0.00,VWS V14.01,2013-06-21 06:06:00,
2013-06-21 02:11:00,79.0,66.7,30.03,North,0,0.0,0.0,66,0.00,,SCT120,0.00,VWS V14.01,2013-06-21 06:11:00,
2013-06-21 02:16:00,78.8,66.5,30.03,North,0,0.0,0.0,66,0.00,,SCT120,0.00,VWS V14.01,2013-06-21 06:16:00,
2013-06-21 02:21:00,78.6,66.3,30.03,North,0,0.0,0.0,66,0.00,,SCT120,0.00,VWS V14.01,2013-06-21 06:21:00,
2013-06-21 02:26:00,78.6,66.3,30.00,North,0,0.0,0.0,66,0.00,,SCT120,0.00,VWS V14.01,2013-06-21 06:26:00,
2013-06-21 02:31:00,78.4,66.6,30.00,North,0,0.0,0.0,67,0.00,,SCT120,0.00,VWS V14.01,2013-06-21 06:31:00,
2013-06-21 02:36:00,78.3,66.4,30.00,North,0,0.0,0.0,67,0.00,,SCT120,0.00,VWS V14.01,2013-06-21 06:36:00,
2013-06-21 02:41:00,78.4,66.6,30.00,North,0,0.0,0.0,67,0.00,,SCT120,0.00,VWS V14.01,2013-06-21 06:41:00,
2013-06-21 02:46:00,78.4,66.6,30.00,North,0,0.0,0.0,67,0.00,,SCT120,0.00,VWS V14.01,2013-06-21 06:46:00,
2013-06-21 02:51:00,78.4,66.6,30.00,North,0,0.0,0.0,67,0.00,,SCT120,0.00,VWS V14.01,2013-06-21 06:51:00,
2013-06-21 02:56:00,78.3,66.4,30.00,North,0,0.0,0.0,67,0.00,,SCT120,0.00,VWS V14.01,2013-06-21 06:56:00,
2013-06-21 03:01:00,78.3,66.4,30.00,North,0,0.0,0.0,67,0.00,,SCT120,0.00,VWS V14.01,2013-06-21 07:01:00,
2013-06-21 03:06:00,78.1,66.2,30.00,North,0,0.0,0.0,67,0.00,,SCT120,0.00,VWS V14.01,2013-06-21 07:06:00,
2013-06-21 03:11:00,78.1,66.7,30.00,North,0,0.0,0.0,68,0.00,,SCT120,0.00,VWS V14.01,2013-06-21 07:11:00,
2013-06-21 03:16:00,77.9,66.5,30.00,North,0,0.0,0.0,68,0.00,,SCT120,0.00,VWS V14.01,2013-06-21 07:16:00,
2013-06-21 03:21:00,77.9,66.9,30.00,North,0,0.0,0.0,69,0.00,,SCT120,0.00,VWS V14.01,2013-06-21 07:21:00,
2013-06-21 03:26:00,77.9,66.9,30.00,North,0,0.0,0.0,69,0.00,,SCT120,0.00,VWS V14.01,2013-06-21 07:26:00,
2013-06-21 03:31:00,77.7,66.8,30.00,North,0,0.0,0.0,69,0.00,,SCT120,0.00,VWS V14.01,2013-06-21 07:31:00,
2013-06-21 03:36:00,77.5,66.6,30.00,North,0,0.0,0.0,69,0.00,,SCT120,0.00,VWS V14.01,2013-06-21 07:36:00,
2013-06-21 03:41:00,77.5,66.6,30.00,North,0,0.0,0.0,69,0.00,,SCT120,0.00,VWS V14.01,2013-06-21 07:41:00,
2013-06-21 03:46:00,77.7,67.2,30.00,North,0,0.0,0.0,70,0.00,,SCT120,0.00,VWS V14.01,2013-06-21 07:46:00,
2013-06-21 03:51:00,77.7,67.2,30.00,North,0,0.0,0.0,70,0.00,,SCT120,0.00,VWS V14.01,2013-06-21 07:51:00,
2013-06-21 03:56:00,77.7,67.2,30.00,North,0,0.0,0.0,70,0.00,,SCT120,0.00,VWS V14.01,2013-06-21 07:56:00,
2013-06-21 04:01:00,77.7,67.2,30.00,North,0,0.0,0.0,70,0.00,,SCT120,0.00,VWS V14.01,2013-06-21 08:01:00,
2013-06-21 04:06:00,77.5,66.6,30.00,North,0,0.0,0.0,69,0.00,,SCT120,0.00,VWS V14.01,2013-06-21 08:06:00,
2013-06-21 04:11:00,77.2,66.2,30.00,North,0,0.0,0.0,69,0.00,,SCT120,0.00,VWS V14.01,2013-06-21 08:11:00,
2013-06-21 04:16:00,76.8,66.7,30.00,North,0,0.0,0.0,71,0.00,,SCT120,0.00,VWS V14.01,2013-06-21 08:16:00,
2013-06-21 04:21:00,76.8,67.1,30.00,North,0,0.0,0.0,72,0.00,,SCT120,0.00,VWS V14.01,2013-06-21 08:21:00,
2013-06-21 04:26:00,76.8,67.5,30.03,North,0,0.0,0.0,73,0.00,,SCT120,0.00,VWS V14.01,2013-06-21 08:26:00,
2013-06-21 04:31:00,77.0,67.7,30.03,North,0,0.0,0.0,73,0.00,,SCT120,0.00,VWS V14.01,2013-06-21 08:31:00,
2013-06-21 04:36:00,76.8,67.5,30.03,North,0,0.0,0.0,73,0.00,,SCT120,0.00,VWS V14.01,2013-06-21 08:36:00,
2013-06-21 04:41:00,76.5,66.8,30.03,North,0,0.0,0.0,72,0.00,,SCT120,0.00,VWS V14.01,2013-06-21 08:41:00,
2013-06-21 04:46:00,76.3,67.0,30.03,North,0,0.0,0.0,73,0.00,,SCT120,0.00,VWS V14.01,2013-06-21 08:46:00,
2013-06-21 04:51:00,76.3,67.4,30.03,North,0,0.0,0.0,74,0.00,,SCT120,0.00,VWS V14.01,2013-06-21 08:51:00,
2013-06-21 04:56:00,76.3,67.4,30.00,North,0,0.0,0.0,74,0.00,,SCT120,0.00,VWS V14.01,2013-06-21 08:56:00,
2013-06-21 05:01:00,76.3,67.8,30.00,North,0,0.0,0.0,75,0.00,,SCT120,0.00,VWS V14.01,2013-06-21 09:01:00,
2013-06-21 05:06:00,76.3,67.8,30.00,North,0,0.0,0.0,75,0.00,,SCT120,0.00,VWS V14.01,2013-06-21 09:06:00,
2013-06-21 05:11:00,76.3,68.2,30.03,North,0,0.0,0.0,76,0.00,,SCT120,0.00,VWS V14.01,2013-06-21 09:11:00,
2013-06-21 05:16:00,76.5,68.3,30.03,North,0,0.0,0.0,76,0.00,,SCT120,0.00,VWS V14.01,2013-06-21 09:16:00,
2013-06-21 05:21:00,76.6,68.5,30.03,North,0,0.0,0.0,76,0.00,,SCT120,0.00,VWS V14.01,2013-06-21 09:21:00,
2013-06-21 05:26:00,76.8,68.7,30.03,North,0,0.0,0.0,76,0.00,,SCT120,0.00,VWS V14.01,2013-06-21 09:26:00,
2013-06-21 05:31:00,76.8,68.7,30.03,North,0,0.0,0.0,76,0.00,,SCT120,0.00,VWS V14.01,2013-06-21 09:31:00,
2013-06-21 05:36:00,76.8,68.7,30.03,North,0,0.0,0.0,76,0.00,,SCT120,0.00,VWS V14.01,2013-06-21 09:36:00,
2013-06-21 05:41:00,76.8,68.3,30.03,North,0,0.0,0.0,75,0.00,,SCT120,0.00,VWS V14.01,2013-06-21 09:41:00,
2013-06-21 05:46:00,76.8,68.7,30.03,North,0,0.0,0.0,76,0.04,,SCT120,0.04,VWS V14.01,2013-06-21 09:46:00,
2013-06-21 05:51:00,76.6,68.5,30.03,North,0,0.0,0.0,76,0.04,,SCT120,0.04,VWS V14.01,2013-06-21 09:51:00,
2013-06-21 05:56:00,76.5,68.7,30.03,North,0,0.0,0.0,77,0.04,,SCT120,0.04,VWS V14.01,2013-06-21 09:56:00,
2013-06-21 06:01:00,76.5,68.7,30.03,North,0,0.0,0.0,77,0.04,,SCT120,0.04,VWS V14.01,2013-06-21 10:01:00,
2013-06-21 06:06:00,76.5,68.7,30.03,North,0,0.0,0.0,77,0.04,,SCT120,0.04,VWS V14.01,2013-06-21 10:06:00,
2013-06-21 06:11:00,76.5,69.1,30.03,North,0,0.0,0.0,78,0.04,,SCT120,0.04,VWS V14.01,2013-06-21 10:11:00,
2013-06-21 06:16:00,76.5,69.1,30.03,North,0,0.0,0.0,78,0.04,,SCT120,0.04,VWS V14.01,2013-06-21 10:16:00,
2013-06-21 06:21:00,76.5,69.1,30.03,North,0,0.0,0.0,78,0.04,,SCT120,0.04,VWS V14.01,2013-06-21 10:21:00,
2013-06-21 06:26:00,76.6,69.3,30.03,North,0,0.0,0.0,78,0.04,,SCT120,0.04,VWS V14.01,2013-06-21 10:26:00,
2013-06-21 06:31:00,76.6,69.3,30.03,North,0,0.0,0.0,78,0.04,,SCT120,0.04,VWS V14.01,2013-06-21 10:31:00,
2013-06-21 06:36:00,76.6,69.3,30.03,North,0,0.0,0.0,78,0.04,,SCT120,0.04,VWS V14.01,2013-06-21 10:36:00,
2013-06-21 06:41:00,76.6,69.3,30.03,North,0,0.0,0.0,78,0.04,,SCT120,0.04,VWS V14.01,2013-06-21 10:41:00,
2013-06-21 06:46:00,76.6,69.3,30.03,North,0,0.0,0.0,78,0.04,,SCT120,0.04,VWS V14.01,2013-06-21 10:46:00,
2013-06-21 06:51:00,76.8,69.4,30.03,North,0,0.0,0.0,78,0.04,,SCT120,0.04,VWS V14.01,2013-06-21 10:51:00,
2013-06-21 06:56:00,77.0,69.6,30.03,North,0,0.0,0.0,78,0.04,,SCT120,0.04,VWS V14.01,2013-06-21 10:56:00,
2013-06-21 07:01:00,77.4,70.0,30.03,North,0,0.0,0.0,78,0.00,,SCT120,0.04,VWS V14.01,2013-06-21 11:01:00,
2013-06-21 07:06:00,77.5,70.1,30.03,North,0,0.0,0.0,78,0.00,,SCT120,0.04,VWS V14.01,2013-06-21 11:06:00,
2013-06-21 07:11:00,77.5,70.1,30.03,North,0,0.0,0.0,78,0.00,,SCT120,0.04,VWS V14.01,2013-06-21 11:11:00,
2013-06-21 07:16:00,77.7,70.3,30.03,North,0,0.0,0.0,78,0.00,,SCT120,0.04,VWS V14.01,2013-06-21 11:16:00,
2013-06-21 07:21:00,78.3,70.8,30.03,North,0,0.0,0.0,78,0.00,,SCT120,0.04,VWS V14.01,2013-06-21 11:21:00,
2013-06-21 07:26:00,78.8,71.0,30.03,North,0,0.0,0.0,77,0.00,,SCT120,0.04,VWS V14.01,2013-06-21 11:26:00,
2013-06-21 07:31:00,79.2,70.9,30.03,North,0,0.0,0.0,76,0.00,,SCT120,0.04,VWS V14.01,2013-06-21 11:31:00,
2013-06-21 07:36:00,79.3,71.1,30.03,North,0,0.0,0.0,76,0.00,,SCT120,0.04,VWS V14.01,2013-06-21 11:36:00,
2013-06-21 07:41:00,79.9,71.6,30.03,North,0,0.0,0.0,76,0.00,,SCT120,0.04,VWS V14.01,2013-06-21 11:41:00,
2013-06-21 07:46:00,80.4,71.8,30.03,North,0,0.0,0.0,75,0.00,,SCT120,0.04,VWS V14.01,2013-06-21 11:46:00,
2013-06-21 07:51:00,80.6,71.2,30.03,North,0,0.0,0.0,73,0.00,,SCT120,0.04,VWS V14.01,2013-06-21 11:51:00,
2013-06-21 07:56:00,81.0,71.5,30.03,North,0,0.0,0.0,73,0.00,,SCT120,0.04,VWS V14.01,2013-06-21 11:56:00,
2013-06-21 08:01:00,81.5,71.6,30.03,North,0,0.0,0.0,72,0.00,,SCT120,0.04,VWS V14.01,2013-06-21 12:01:00,
2013-06-21 08:06:00,81.7,70.5,30.03,North,0,0.0,0.0,69,0.00,,SCT120,0.04,VWS V14.01,2013-06-21 12:06:00,
2013-06-21 08:11:00,82.2,71.0,30.06,North,0,0.0,0.0,69,0.00,,SCT120,0.04,VWS V14.01,2013-06-21 12:11:00,
2013-06-21 08:16:00,82.4,69.9,30.06,North,0,0.0,0.0,66,0.00,,SCT120,0.04,VWS V14.01,2013-06-21 12:16:00,
2013-06-21 08:21:00,82.4,68.1,30.06,North,0,0.0,0.0,62,0.00,,SCT120,0.04,VWS V14.01,2013-06-21 12:21:00,
2013-06-21 08:26:00,82.0,66.8,30.06,North,0,0.0,0.0,60,0.00,,SCT120,0.04,VWS V14.01,2013-06-21 12:26:00,
2013-06-21 08:31:00,82.4,66.2,30.06,North,0,0.0,0.0,58,0.00,,SCT120,0.04,VWS V14.01,2013-06-21 12:31:00,
2013-06-21 08:36:00,82.8,65.5,30.06,North,0,0.0,0.0,56,0.00,,SCT120,0.04,VWS V14.01,2013-06-21 12:36:00,
2013-06-21 08:41:00,83.1,64.8,30.06,North,0,0.0,0.0,54,0.00,,SCT120,0.04,VWS V14.01,2013-06-21 12:41:00,
2013-06-21 08:46:00,83.3,62.7,30.06,North,0,0.0,0.0,50,0.00,,SCT120,0.04,VWS V14.01,2013-06-21 12:46:00,
2013-06-21 08:51:00,84.0,64.0,30.06,North,0,0.0,0.0,51,0.00,,SCT120,0.04,VWS V14.01,2013-06-21 12:51:00,
2013-06-21 08:56:00,84.0,62.8,30.06,North,0,0.0,0.0,49,0.00,,SCT120,0.04,VWS V14.01,2013-06-21 12:56:00,
2013-06-21 09:01:00,84.0,61.0,30.06,North,0,0.0,0.0,46,0.00,,SCT120,0.04,VWS V14.01,2013-06-21 13:01:00,
2013-06-21 09:07:00,84.7,61.1,30.06,North,0,0.0,0.0,45,0.00,,SCT120,0.04,VWS V14.01,2013-06-21 13:07:00,
2013-06-21 09:12:00,84.6,56.9,30.06,North,0,0.0,0.0,39,0.00,,SCT120,0.04,VWS V14.01,2013-06-21 13:12:00,
2013-06-21 09:17:00,85.3,56.8,30.06,North,0,0.0,0.0,38,0.00,,SCT120,0.04,VWS V14.01,2013-06-21 13:17:00,
2013-06-21 09:22:00,85.6,55.7,30.06,North,0,0.0,0.0,36,0.00,,SCT120,0.04,VWS V14.01,2013-06-21 13:22:00,
2013-06-21 09:27:00,85.5,53.1,30.03,North,0,0.0,0.0,33,0.00,,SCT120,0.04,VWS V14.01,2013-06-21 13:27:00,
2013-06-21 09:32:00,85.6,51.6,30.03,North,0,0.0,0.0,31,0.00,,SCT120,0.04,VWS V14.01,2013-06-21 13:32:00,
2013-06-21 09:37:00,86.2,52.0,30.03,North,0,0.0,0.0,31,0.00,,SCT120,0.04,VWS V14.01,2013-06-21 13:37:00,
2013-06-21 09:42:00,86.9,50.8,30.06,North,0,0.0,0.0,29,0.00,,SCT120,0.04,VWS V14.01,2013-06-21 13:42:00,
2013-06-21 09:47:00,87.1,51.9,30.06,North,0,0.0,0.0,30,0.00,,SCT120,0.04,VWS V14.01,2013-06-21 13:47:00,
2013-06-21 09:52:00,86.7,51.6,30.06,North,0,0.0,0.0,30,0.00,,SCT120,0.04,VWS V14.01,2013-06-21 13:52:00,
2013-06-21 09:57:00,87.1,51.0,30.06,North,0,0.0,0.0,29,0.00,,SCT120,0.04,VWS V14.01,2013-06-21 13:57:00,
2013-06-21 10:02:00,87.4,49.4,30.06,North,0,0.0,0.0,27,0.00,,SCT120,0.04,VWS V14.01,2013-06-21 14:02:00,
2013-06-21 10:07:00,87.1,50.1,30.06,North,0,0.0,0.0,28,0.00,,SCT120,0.04,VWS V14.01,2013-06-21 14:07:00,
2013-06-21 10:12:00,87.3,51.2,30.06,North,0,0.0,0.0,29,0.00,,SCT120,0.04,VWS V14.01,2013-06-21 14:12:00,
2013-06-21 10:17:00,88.2,51.0,30.06,North,0,0.0,0.0,28,0.00,,SCT120,0.04,VWS V14.01,2013-06-21 14:17:00,
2013-06-21 10:22:00,87.6,50.5,30.06,North,0,0.0,0.0,28,0.00,,SCT120,0.04,VWS V14.01,2013-06-21 14:22:00,
2013-06-21 10:27:00,87.3,50.2,30.06,North,0,0.0,0.0,28,0.00,,SCT120,0.04,VWS V14.01,2013-06-21 14:27:00,
2013-06-21 10:32:00,86.7,51.6,30.06,North,0,0.0,0.0,30,0.00,,SCT120,0.04,VWS V14.01,2013-06-21 14:32:00,
2013-06-21 10:37:00,86.5,51.5,30.06,North,0,0.0,0.0,30,0.00,,SCT120,0.04,VWS V14.01,2013-06-21 14:37:00,
2013-06-21 10:42:00,86.7,50.7,30.06,North,0,0.0,0.0,29,0.00,,SCT120,0.04,VWS V14.01,2013-06-21 14:42:00,
2013-06-21 10:47:00,87.6,48.5,30.06,North,0,0.0,0.0,26,0.00,,SCT120,0.04,VWS V14.01,2013-06-21 14:47:00,
2013-06-21 10:52:00,88.2,47.9,30.06,North,0,0.0,0.0,25,0.00,,SCT120,0.04,VWS V14.01,2013-06-21 14:52:00,
2013-06-21 10:57:00,88.9,47.5,30.06,North,0,0.0,0.0,24,0.00,,SCT120,0.04,VWS V14.01,2013-06-21 14:57:00,
2013-06-21 11:02:00,89.2,47.8,30.06,North,0,0.0,0.0,24,0.00,,SCT120,0.04,VWS V14.01,2013-06-21 15:02:00,
2013-06-21 11:07:00,89.6,45.8,30.06,North,0,0.0,0.0,22,0.00,,SCT120,0.04,VWS V14.01,2013-06-21 15:07:00,
2013-06-21 11:12:00,89.2,45.5,30.06,North,0,0.0,0.0,22,0.00,,SCT120,0.04,VWS V14.01,2013-06-21 15:12:00,
2013-06-21 11:17:00,89.6,43.3,30.06,North,0,0.0,0.0,20,0.00,,SCT120,0.04,VWS V14.01,2013-06-21 15:17:00,
2013-06-21 11:22:00,89.1,42.8,30.06,North,0,0.0,0.0,20,0.00,,SCT120,0.04,VWS V14.01,2013-06-21 15:22:00,
2013-06-21 11:27:00,89.2,41.6,30.03,North,0,0.0,0.0,19,0.00,,SCT120,0.04,VWS V14.01,2013-06-21 15:27:00,
2013-06-21 11:32:00,90.0,43.5,30.03,North,0,0.0,0.0,20,0.00,,SCT120,0.04,VWS V14.01,2013-06-21 15:32:00,
2013-06-21 11:37:00,90.1,45.0,30.03,North,0,0.0,0.0,21,0.00,,SCT120,0.04,VWS V14.01,2013-06-21 15:37:00,
2013-06-21 11:42:00,89.4,44.4,30.03,North,0,0.0,0.0,21,0.00,,SCT120,0.04,VWS V14.01,2013-06-21 15:42:00,
2013-06-21 11:47:00,89.8,44.7,30.03,North,0,0.0,0.0,21,0.00,,SCT120,0.04,VWS V14.01,2013-06-21 15:47:00,
2013-06-21 11:52:00,90.1,45.0,30.03,North,0,0.0,0.0,21,0.00,,SCT120,0.04,VWS V14.01,2013-06-21 15:52:00,
2013-06-21 11:57:00,90.0,43.5,30.03,North,0,0.0,0.0,20,0.00,,SCT120,0.04,VWS V14.01,2013-06-21 15:57:00,
2013-06-21 12:02:00,90.1,43.7,30.03,North,0,0.0,0.0,20,0.00,,SCT120,0.04,VWS V14.01,2013-06-21 16:02:00,
2013-06-21 12:07:00,90.1,43.7,30.03,North,0,0.0,0.0,20,0.00,,SCT120,0.04,VWS V14.01,2013-06-21 16:07:00,
2013-06-21 12:12:00,89.4,44.4,30.03,North,0,0.0,0.0,21,0.00,,SCT120,0.04,VWS V14.01,2013-06-21 16:12:00,
2013-06-21 12:17:00,90.1,45.0,30.03,North,0,0.0,0.0,21,0.00,,SCT120,0.04,VWS V14.01,2013-06-21 16:17:00,
2013-06-21 12:22:00,90.0,46.1,30.03,North,0,0.0,0.0,22,0.00,,SCT120,0.04,VWS V14.01,2013-06-21 16:22:00,
2013-06-21 12:27:00,90.3,45.1,30.03,North,0,0.0,0.0,21,0.00,,SCT120,0.04,VWS V14.01,2013-06-21 16:27:00,
2013-06-21 12:32:00,91.4,43.4,30.03,North,0,0.0,0.0,19,0.00,,SCT120,0.04,VWS V14.01,2013-06-21 16:32:00,
2013-06-21 12:37:00,92.3,42.7,30.03,North,0,0.0,0.0,18,0.00,,SCT120,0.04,VWS V14.01,2013-06-21 16:37:00,
2013-06-21 12:42:00,92.3,36.3,30.03,North,0,0.0,0.0,14,0.00,,SCT120,0.04,VWS V14.01,2013-06-21 16:42:00,
2013-06-21 12:47:00,92.3,41.2,30.03,North,0,0.0,0.0,17,0.00,,SCT120,0.04,VWS V14.01,2013-06-21 16:47:00,
2013-06-21 12:52:00,92.7,41.5,30.03,North,0,0.0,0.0,17,0.00,,SCT120,0.04,VWS V14.01,2013-06-21 16:52:00,
2013-06-21 12:57:00,92.7,41.5,30.03,North,0,0.0,0.0,17,0.00,,SCT120,0.04,VWS V14.01,2013-06-21 16:57:00,
2013-06-21 13:02:00,91.8,42.3,30.03,North,0,0.0,0.0,18,0.00,,SCT120,0.04,VWS V14.01,2013-06-21 17:02:00,
2013-06-21 13:07:00,91.4,42.0,30.03,North,0,0.0,0.0,18,0.00,,SCT120,0.04,VWS V14.01,2013-06-21 17:07:00,
2013-06-21 13:13:00,91.8,42.3,30.03,North,0,0.0,0.0,18,0.00,,SCT120,0.04,VWS V14.01,2013-06-21 17:13:00,
2013-06-21 13:18:00,92.1,41.1,30.03,North,0,0.0,0.0,17,0.00,,SCT120,0.04,VWS V14.01,2013-06-21 17:18:00,
2013-06-21 13:23:00,91.8,42.3,30.03,North,0,0.0,0.0,18,0.00,,SCT120,0.04,VWS V14.01,2013-06-21 17:23:00,
2013-06-21 13:28:00,91.9,40.9,30.03,North,0,0.0,0.0,17,0.00,,SCT120,0.04,VWS V14.01,2013-06-21 17:28:00,
2013-06-21 13:33:00,91.8,42.3,30.03,North,0,0.0,0.0,18,0.00,,SCT120,0.04,VWS V14.01,2013-06-21 17:33:00,
2013-06-21 13:38:00,92.1,36.1,30.03,North,0,0.0,0.0,14,0.00,,SCT120,0.04,VWS V14.01,2013-06-21 17:38:00,
2013-06-21 13:43:00,93.2,37.0,30.03,North,0,0.0,0.0,14,0.00,,SCT120,0.04,VWS V14.01,2013-06-21 17:43:00,
2013-06-21 13:46:00,92.8,25.8,30.03,North,0,0.0,0.0,9,0.00,,SCT120,0.04,VWS V14.01,2013-06-21 17:46:00,
2013-06-21 13:51:00,93.0,33.0,30.03,North,0,0.0,0.0,12,0.00,,SCT120,0.04,VWS V14.01,2013-06-21 17:51:00,
2013-06-21 13:57:00,92.7,32.7,30.03,North,0,0.0,0.0,12,0.00,,SCT120,0.04,VWS V14.01,2013-06-21 17:57:00,
2013-06-21 14:02:00,92.3,36.3,30.03,North,0,0.0,0.0,14,0.00,,SCT120,0.04,VWS V14.01,2013-06-21 18:02:00,
2013-06-21 14:07:00,93.4,37.1,30.03,North,0,0.0,0.0,14,0.00,,SCT120,0.04,VWS V14.01,2013-06-21 18:07:00,
2013-06-21 14:12:00,93.0,36.8,30.00,North,0,0.0,0.0,14,0.00,,SCT120,0.04,VWS V14.01,2013-06-21 18:12:00,
2013-06-21 14:17:00,91.6,42.1,30.00,North,0,0.0,0.0,18,0.00,,SCT120,0.04,VWS V14.01,2013-06-21 18:17:00,
2013-06-21 14:23:00,91.9,40.9,30.00,North,0,0.0,0.0,17,0.00,,SCT120,0.04,VWS V14.01,2013-06-21 18:23:00,
2013-06-21 14:28:00,93.0,36.8,30.00,North,0,0.0,0.0,14,0.00,,SCT120,0.04,VWS V14.01,2013-06-21 18:28:00,
2013-06-21 14:33:00,92.3,36.3,30.00,North,0,0.0,0.0,14,0.00,,SCT120,0.04,VWS V14.01,2013-06-21 18:33:00,
2013-06-21 14:38:00,92.5,36.4,30.00,North,0,0.0,0.0,14,0.00,,SCT120,0.04,VWS V14.01,2013-06-21 18:38:00,
2013-06-21 14:44:00,92.7,41.5,30.00,North,0,0.0,0.0,17,0.00,,SCT120,0.04,VWS V14.01,2013-06-21 18:44:00,
2013-06-21 14:45:00,92.3,41.2,30.00,North,0,0.0,0.0,17,0.00,,SCT120,0.04,VWS V14.01,2013-06-21 18:45:00,
2013-06-21 14:50:00,92.8,41.7,30.00,North,0,0.0,0.0,17,0.00,,SCT120,0.04,VWS V14.01,2013-06-21 18:50:00,
2013-06-21 14:55:00,90.9,36.9,30.00,North,0,0.0,0.0,15,0.00,,SCT120,0.04,VWS V14.01,2013-06-21 18:55:00,
2013-06-21 15:00:00,91.2,37.2,30.00,North,0,0.0,0.0,15,0.00,,SCT120,0.04,VWS V14.01,2013-06-21 19:00:00,
2013-06-21 15:05:00,90.3,41.1,30.00,North,0,0.0,0.0,18,0.00,,SCT120,0.04,VWS V14.01,2013-06-21 19:05:00,
2013-06-21 15:10:00,90.7,41.4,30.00,North,0,0.0,0.0,18,0.00,,SCT120,0.04,VWS V14.01,2013-06-21 19:10:00,
2013-06-21 15:15:00,90.7,41.4,30.00,North,0,0.0,0.0,18,0.00,,SCT120,0.04,VWS V14.01,2013-06-21 19:15:00,
2013-06-21 15:20:00,91.2,43.2,30.00,North,0,0.0,0.0,19,0.00,,SCT120,0.04,VWS V14.01,2013-06-21 19:20:00,
2013-06-21 15:25:00,90.9,41.5,30.00,North,0,0.0,0.0,18,0.00,,SCT120,0.04,VWS V14.01,2013-06-21 19:25:00,
2013-06-21 15:30:00,90.3,42.5,30.00,North,0,0.0,0.0,19,0.00,,SCT120,0.04,VWS V14.01,2013-06-21 19:30:00,
2013-06-21 15:35:00,90.9,43.0,30.00,North,0,0.0,0.0,19,0.00,,SCT120,0.04,VWS V14.01,2013-06-21 19:35:00,
2013-06-21 15:40:00,91.0,41.7,30.00,North,0,0.0,0.0,18,0.00,,SCT120,0.04,VWS V14.01,2013-06-21 19:40:00,
2013-06-21 15:42:00,91.4,42.0,30.00,North,0,0.0,0.0,18,0.00,,SCT120,0.04,VWS V14.01,2013-06-21 19:42:00,
2013-06-21 15:48:00,90.9,43.0,30.00,North,0,0.0,0.0,19,0.00,,SCT120,0.04,VWS V14.01,2013-06-21 19:48:00,
2013-06-21 15:53:00,92.3,42.7,30.00,North,0,0.0,0.0,18,0.00,,SCT120,0.04,VWS V14.01,2013-06-21 19:53:00,
2013-06-21 15:58:00,91.9,40.9,30.00,North,0,0.0,0.0,17,0.00,,SCT120,0.04,VWS V14.01,2013-06-21 19:58:00,
2013-06-21 16:03:00,91.6,42.1,30.00,North,0,0.0,0.0,18,0.00,,SCT120,0.04,VWS V14.01,2013-06-21 20:03:00,
2013-06-21 16:04:00,91.4,40.5,30.00,North,0,0.0,0.0,17,0.00,,SCT120,0.04,VWS V14.01,2013-06-21 20:04:00,
2013-06-21 16:09:00,90.3,41.1,30.00,North,0,0.0,0.0,18,0.00,,SCT120,0.04,VWS V14.01,2013-06-21 20:09:00,
2013-06-21 16:11:00,90.1,41.0,30.00,North,0,0.0,0.0,18,0.00,,SCT120,0.04,VWS V14.01,2013-06-21 20:11:00,
2013-06-21 16:14:00,90.1,41.0,30.00,North,0,0.0,0.0,18,0.00,,SCT120,0.04,VWS V14.01,2013-06-21 20:14:00,
2013-06-21 16:19:00,90.3,41.1,30.00,North,0,0.0,0.0,18,0.00,,SCT120,0.04,VWS V14.01,2013-06-21 20:19:00,
2013-06-21 16:24:00,89.1,41.5,30.00,North,0,0.0,0.0,19,0.00,,SCT120,0.04,VWS V14.01,2013-06-21 20:24:00,
2013-06-21 16:29:00,89.4,43.1,30.00,North,0,0.0,0.0,20,0.00,,SCT120,0.04,VWS V14.01,2013-06-21 20:29:00,
2013-06-21 16:34:00,90.0,44.8,30.00,North,0,0.0,0.0,21,0.00,,SCT120,0.04,VWS V14.01,2013-06-21 20:34:00,
2013-06-21 16:39:00,89.8,44.7,30.00,North,0,0.0,0.0,21,0.00,,SCT120,0.04,VWS V14.01,2013-06-21 20:39:00,
2013-06-21 16:44:00,89.6,45.8,30.00,North,0,0.0,0.0,22,0.00,,SCT120,0.04,VWS V14.01,2013-06-21 20:44:00,
2013-06-21 16:49:00,88.5,43.6,30.00,North,0,0.0,0.0,21,0.00,,SCT120,0.04,VWS V14.01,2013-06-21 20:49:00,
2013-06-21 16:54:00,89.1,44.1,30.00,North,0,0.0,0.0,21,0.00,,SCT120,0.04,VWS V14.01,2013-06-21 20:54:00,
2013-06-21 16:59:00,90.1,42.4,30.00,North,0,0.0,0.0,19,0.00,,SCT120,0.04,VWS V14.01,2013-06-21 20:59:00,
2013-06-21 17:04:00,90.9,41.5,30.00,North,0,0.0,0.0,18,0.00,,SCT120,0.04,VWS V14.01,2013-06-21 21:04:00,
2013-06-21 17:09:00,90.9,41.5,30.00,North,0,0.0,0.0,18,0.00,,SCT120,0.04,VWS V14.01,2013-06-21 21:09:00,
2013-06-21 17:14:00,90.1,42.4,30.00,North,0,0.0,0.0,19,0.00,,SCT120,0.04,VWS V14.01,2013-06-21 21:14:00,
2013-06-21 17:19:00,88.7,43.8,30.00,North,0,0.0,0.0,21,0.00,,SCT120,0.04,VWS V14.01,2013-06-21 21:19:00,
2013-06-21 17:24:00,88.5,46.0,30.00,North,0,0.0,0.0,23,0.00,,SCT120,0.04,VWS V14.01,2013-06-21 21:24:00,
2013-06-21 17:29:00,88.9,47.5,30.00,North,0,0.0,0.0,24,0.00,,SCT120,0.04,VWS V14.01,2013-06-21 21:29:00,
2013-06-21 17:34:00,88.7,46.2,30.00,North,0,0.0,0.0,23,0.00,,SCT120,0.04,VWS V14.01,2013-06-21 21:34:00,
2013-06-21 17:39:00,87.6,49.5,30.00,North,0,0.0,0.0,27,0.00,,SCT120,0.04,VWS V14.01,2013-06-21 21:39:00,
2013-06-21 17:44:00,87.3,48.2,30.00,North,0,0.0,0.0,26,0.00,,SCT120,0.04,VWS V14.01,2013-06-21 21:44:00,
2013-06-21 17:49:00,87.1,47.0,30.00,North,0,0.0,0.0,25,0.00,,SCT120,0.04,VWS V14.01,2013-06-21 21:49:00,
2013-06-21 17:54:00,86.7,48.8,30.00,North,0,0.0,0.0,27,0.00,,SCT120,0.04,VWS V14.01,2013-06-21 21:54:00,
2013-06-21 17:59:00,86.4,47.5,30.00,North,0,0.0,0.0,26,0.00,,SCT120,0.04,VWS V14.01,2013-06-21 21:59:00,
2013-06-21 18:04:00,86.7,47.8,30.00,North,0,0.0,0.0,26,0.00,,SCT120,0.04,VWS V14.01,2013-06-21 22:04:00,
2013-06-21 18:09:00,86.7,49.8,30.00,North,0,0.0,0.0,28,0.00,,SCT120,0.04,VWS V14.01,2013-06-21 22:09:00,
2013-06-21 18:14:00,86.4,49.4,30.00,North,0,0.0,0.0,28,0.00,,SCT120,0.04,VWS V14.01,2013-06-21 22:14:00,
2013-06-21 18:19:00,86.0,50.1,30.00,North,0,0.0,0.0,29,0.00,,SCT120,0.04,VWS V14.01,2013-06-21 22:19:00,
2013-06-21 18:24:00,85.8,49.9,30.00,North,0,0.0,0.0,29,0.00,,SCT120,0.04,VWS V14.01,2013-06-21 22:24:00,
2013-06-21 18:29:00,85.8,50.8,30.00,North,0,0.0,0.0,30,0.00,,SCT120,0.04,VWS V14.01,2013-06-21 22:29:00,
2013-06-21 18:34:00,86.2,50.2,30.00,North,0,0.0,0.0,29,0.00,,SCT120,0.04,VWS V14.01,2013-06-21 22:34:00,
2013-06-21 18:39:00,86.0,50.1,30.00,North,0,0.0,0.0,29,0.00,,SCT120,0.04,VWS V14.01,2013-06-21 22:39:00,
2013-06-21 18:44:00,85.5,49.6,30.00,North,0,0.0,0.0,29,0.00,,SCT120,0.04,VWS V14.01,2013-06-21 22:44:00,
2013-06-21 18:49:00,85.6,49.8,30.00,North,0,0.0,0.0,29,0.00,,SCT120,0.04,VWS V14.01,2013-06-21 22:49:00,
2013-06-21 18:54:00,85.5,49.6,30.00,North,0,0.0,0.0,29,0.00,,SCT120,0.04,VWS V14.01,2013-06-21 22:54:00,
2013-06-21 18:59:00,85.1,49.3,30.00,North,0,0.0,0.0,29,0.00,,SCT120,0.04,VWS V14.01,2013-06-21 22:59:00,
2013-06-21 19:04:00,85.1,50.2,30.00,North,0,0.0,0.0,30,0.00,,SCT120,0.04,VWS V14.01,2013-06-21 23:04:00,
2013-06-21 19:09:00,85.1,50.2,30.00,North,0,0.0,0.0,30,0.00,,SCT120,0.04,VWS V14.01,2013-06-21 23:09:00,
2013-06-21 19:14:00,84.6,49.8,30.03,North,0,0.0,0.0,30,0.00,,SCT120,0.04,VWS V14.01,2013-06-21 23:14:00,
2013-06-21 19:19:00,84.4,49.6,30.03,North,0,0.0,0.0,30,0.00,,SCT120,0.04,VWS V14.01,2013-06-21 23:19:00,
2013-06-21 19:24:00,84.4,50.5,30.03,North,0,0.0,0.0,31,0.00,,SCT120,0.04,VWS V14.01,2013-06-21 23:24:00,
2013-06-21 19:29:00,84.4,50.5,30.03,North,0,0.0,0.0,31,0.00,,SCT120,0.04,VWS V14.01,2013-06-21 23:29:00,
2013-06-21 19:34:00,84.4,50.5,30.03,North,0,0.0,0.0,31,0.00,,SCT120,0.04,VWS V14.01,2013-06-21 23:34:00,
2013-06-21 19:39:00,84.4,50.5,30.03,North,0,0.0,0.0,31,0.00,,SCT120,0.04,VWS V14.01,2013-06-21 23:39:00,
2013-06-21 19:44:00,84.4,50.5,30.03,North,0,0.0,0.0,31,0.00,,SCT120,0.04,VWS V14.01,2013-06-21 23:44:00,
2013-06-21 19:49:00,84.4,50.5,30.03,North,0,0.0,0.0,31,0.00,,SCT120,0.04,VWS V14.01,2013-06-21 23:49:00,
2013-06-21 19:54:00,84.4,50.5,30.03,North,0,0.0,0.0,31,0.00,,SCT120,0.04,VWS V14.01,2013-06-21 23:54:00,
2013-06-21 19:59:00,84.2,50.3,30.03,North,0,0.0,0.0,31,0.00,,SCT120,0.04,VWS V14.01,2013-06-21 23:59:00,
2013-06-21 20:04:00,84.0,51.0,30.03,North,0,0.0,0.0,32,0.00,,SCT120,0.04,VWS V14.01,2013-06-22 00:04:00,
2013-06-21 20:09:00,83.8,51.7,30.03,North,0,0.0,0.0,33,0.00,,SCT120,0.04,VWS V14.01,2013-06-22 00:09:00,
2013-06-21 20:14:00,83.7,51.5,30.03,North,0,0.0,0.0,33,0.00,,SCT120,0.04,VWS V14.01,2013-06-22 00:14:00,
2013-06-21 20:19:00,83.5,50.5,30.03,North,0,0.0,0.0,32,0.00,,SCT120,0.04,VWS V14.01,2013-06-22 00:19:00,
2013-06-21 20:24:00,83.5,51.4,30.03,North,0,0.0,0.0,33,0.00,,SCT120,0.04,VWS V14.01,2013-06-22 00:24:00,
2013-06-21 20:29:00,83.5,51.4,30.03,North,0,0.0,0.0,33,0.00,,SCT120,0.04,VWS V14.01,2013-06-22 00:29:00,
2013-06-21 20:34:00,83.5,51.4,30.03,North,0,0.0,0.0,33,0.00,,SCT120,0.04,VWS V14.01,2013-06-22 00:34:00,
2013-06-21 20:39:00,83.7,51.5,30.03,North,0,0.0,0.0,33,0.00,,SCT120,0.04,VWS V14.01,2013-06-22 00:39:00,
2013-06-21 20:44:00,83.5,51.4,30.03,North,0,0.0,0.0,33,0.00,,SCT120,0.04,VWS V14.01,2013-06-22 00:44:00,
2013-06-21 20:49:00,83.5,52.2,30.03,North,0,0.0,0.0,34,0.00,,SCT120,0.04,VWS V14.01,2013-06-22 00:49:00,
2013-06-21 20:54:00,83.5,52.2,30.03,North,0,0.0,0.0,34,0.00,,SCT120,0.04,VWS V14.01,2013-06-22 00:54:00,
2013-06-21 20:59:00,83.3,52.8,30.03,North,0,0.0,0.0,35,0.00,,SCT120,0.04,VWS V14.01,2013-06-22 00:59:00,
2013-06-21 21:04:00,83.3,52.8,30.03,North,0,0.0,0.0,35,0.00,,SCT120,0.04,VWS V14.01,2013-06-22 01:04:00,
2013-06-21 21:09:00,83.1,53.4,30.03,North,0,0.0,0.0,36,0.00,,SCT120,0.04,VWS V14.01,2013-06-22 01:09:00,
2013-06-21 21:14:00,83.1,54.2,30.03,North,0,0.0,0.0,37,0.00,,SCT120,0.04,VWS V14.01,2013-06-22 01:14:00,
2013-06-21 21:19:00,82.9,54.0,30.03,North,0,0.0,0.0,37,0.00,,SCT120,0.04,VWS V14.01,2013-06-22 01:19:00,
2013-06-21 21:24:00,82.9,54.0,30.03,North,0,0.0,0.0,37,0.00,,SCT120,0.04,VWS V14.01,2013-06-22 01:24:00,
2013-06-21 21:29:00,82.9,54.0,30.03,North,0,0.0,0.0,37,0.00,,SCT120,0.04,VWS V14.01,2013-06-22 01:29:00,
2013-06-21 21:34:00,82.9,54.8,30.03,North,0,0.0,0.0,38,0.00,,SCT120,0.04,VWS V14.01,2013-06-22 01:34:00,
2013-06-21 21:39:00,83.1,56.3,30.03,North,0,0.0,0.0,40,0.00,,SCT120,0.04,VWS V14.01,2013-06-22 01:39:00,
2013-06-21 21:44:00,82.9,56.8,30.03,North,0,0.0,0.0,41,0.00,,SCT120,0.04,VWS V14.01,2013-06-22 01:44:00,
2013-06-21 21:49:00,82.8,57.3,30.03,North,0,0.0,0.0,42,0.00,,SCT120,0.04,VWS V14.01,2013-06-22 01:49:00,
2013-06-21 21:54:00,82.6,57.8,30.03,North,0,0.0,0.0,43,0.00,,SCT120,0.04,VWS V14.01,2013-06-22 01:54:00,
2013-06-21 21:59:00,82.4,57.7,30.06,North,0,0.0,0.0,43,0.00,,SCT120,0.04,VWS V14.01,2013-06-22 01:59:00,
2013-06-21 22:04:00,82.0,57.4,30.06,North,0,0.0,0.0,43,0.00,,SCT120,0.04,VWS V14.01,2013-06-22 02:04:00,
2013-06-21 22:09:00,81.7,57.7,30.06,North,0,0.0,0.0,44,0.00,,SCT120,0.04,VWS V14.01,2013-06-22 02:09:00,
2013-06-21 22:14:00,81.7,57.0,30.06,North,0,0.0,0.0,43,0.00,,SCT120,0.04,VWS V14.01,2013-06-22 02:14:00,
2013-06-21 22:19:00,81.7,57.0,30.06,North,0,0.0,0.0,43,0.00,,SCT120,0.04,VWS V14.01,2013-06-22 02:19:00,
2013-06-21 22:24:00,81.3,56.7,30.06,North,0,0.0,0.0,43,0.00,,SCT120,0.04,VWS V14.01,2013-06-22 02:24:00,
2013-06-21 22:29:00,81.5,56.9,30.06,North,0,0.0,0.0,43,0.00,,SCT120,0.04,VWS V14.01,2013-06-22 02:29:00,
2013-06-21 22:34:00,81.5,56.9,30.06,North,0,0.0,0.0,43,0.00,,SCT120,0.04,VWS V14.01,2013-06-22 02:34:00,
2013-06-21 22:39:00,81.5,56.9,30.06,North,0,0.0,0.0,43,0.00,,SCT120,0.04,VWS V14.01,2013-06-22 02:39:00,
2013-06-21 22:44:00,81.3,56.7,30.06,North,0,0.0,0.0,43,0.00,,SCT120,0.04,VWS V14.01,2013-06-22 02:44:00,
2013-06-21 22:49:00,81.3,56.7,30.06,North,0,0.0,0.0,43,0.00,,SCT120,0.04,VWS V14.01,2013-06-22 02:49:00,
2013-06-21 22:54:00,81.1,57.2,30.06,North,0,0.0,0.0,44,0.00,,SCT120,0.04,VWS V14.01,2013-06-22 02:54:00,
2013-06-21 22:59:00,81.1,57.2,30.06,North,0,0.0,0.0,44,0.00,,SCT120,0.04,VWS V14.01,2013-06-22 02:59:00,
2013-06-21 23:04:00,81.0,57.6,30.06,North,0,0.0,0.0,45,0.00,,SCT120,0.04,VWS V14.01,2013-06-22 03:04:00,
2013-06-21 23:09:00,81.0,57.6,30.06,North,0,0.0,0.0,45,0.00,,SCT120,0.04,VWS V14.01,2013-06-22 03:09:00,
2013-06-21 23:14:00,81.0,57.6,30.06,North,0,0.0,0.0,45,0.00,,SCT120,0.04,VWS V14.01,2013-06-22 03:14:00,
2013-06-21 23:19:00,80.8,57.5,30.06,North,0,0.0,0.0,45,0.00,,SCT120,0.04,VWS V14.01,2013-06-22 03:19:00,
2013-06-21 23:24:00,80.8,58.1,30.06,North,0,0.0,0.0,46,0.00,,SCT120,0.04,VWS V14.01,2013-06-22 03:24:00,
2013-06-21 23:29:00,80.6,57.9,30.06,North,0,0.0,0.0,46,0.00,,SCT120,0.04,VWS V14.01,2013-06-22 03:29:00,
2013-06-21 23:34:00,80.8,58.1,30.06,North,0,0.0,0.0,46,0.00,,SCT120,0.04,VWS V14.01,2013-06-22 03:34:00,
2013-06-21 23:39:00,80.6,57.9,30.06,North,0,0.0,0.0,46,0.00,,SCT120,0.04,VWS V14.01,2013-06-22 03:39:00,
2013-06-21 23:44:00,80.6,57.3,30.06,North,0,0.0,0.0,45,0.00,,SCT120,0.04,VWS V14.01,2013-06-22 03:44:00,
2013-06-21 23:49:00,80.8,57.5,30.06,North,0,0.0,0.0,45,0.00,,SCT120,0.04,VWS V14.01,2013-06-22 03:49:00,
2013-06-21 23:54:00,81.0,57.6,30.06,North,0,0.0,0.0,45,0.00,,SCT120,0.04,VWS V14.01,2013-06-22 03:54:00,
2013-06-21 23:59:00,81.0,57.6,30.06,North,0,0.0,0.0,45,0.00,,SCT120,0.00,VWS V14.01,2013-06-22 03:59:00,